Flag for Canada Weather past 2 weeks in Yorkton, Saskatchewan, Canada

Now
-17 °F

Sunny.


Feels Like: -33 °F
Forecast: -22 / -2 °F
Wind: 7 mph from Southwest

Location: Yorkton

Current Time: Feb 1, 2015 at 11:08:02 AM

Latest Report: Feb 1, 2015 at 10:00 AM


Visibility: 9 mi

Pressure: 30.62 "Hg

Humidity: 69%

Dew point: -24 °F

Location of YorktonLocation

Historic Weather in Yorkton — Graph

°F

Yorkton temperature yesterday

Maximum temperature yesterday: 5 °F (at 12:00 AM)
Minimum temperature yesterday: -17 °F (at 9:00 AM)
Average temperature yesterday: -9 °F

Past Weeks' High & Low Weather Summary

 TemperatureHumidityPressure
High39 °F (Jan 22, 2:00 PM)100% (Jan 18, 6:00 AM)30.75 "Hg (Jan 18, 6:00 AM)
Low-20 °F (Feb 1, 8:00 AM)63% (Jan 31, 1:00 PM)29.62 "Hg (Jan 17, 10:00 AM)
Average19 °F87%30.07 "Hg
* Reported Jan 17 10:00 AM — Feb 1 10:00 AM, Yorkton, Weather by CustomWeather, © 2014

Note: Actual official high and low records may vary slightly from our data, if they occured in-between our weather recording intervals... More about our weather records

Advertising

Yorkton weather history for previous 24 hours

 ConditionsComfort  
Time TempWeatherWind HumidityBarometerVisibility
10:00 AM
Feb 1
-17 °FSunny.7 mph69%30.62 "Hg9 mi
9:00 AM-18 °FSunny.7 mph69%30.64 "Hg9 mi
8:00 AM-20 °FClear.10 mph75%30.67 "Hg9 mi
7:00 AM-18 °FClear.7 mph69%30.68 "Hg9 mi
6:00 AM-15 °FOvercast.7 mph63%30.69 "Hg9 mi
5:00 AM-17 °FOvercast.5 mph69%30.71 "Hg9 mi
4:00 AM-17 °FPassing clouds.6 mph69%30.71 "Hg9 mi
3:00 AM-17 °FOvercast.5 mph69%30.73 "Hg9 mi
2:00 AM-18 °FPassing clouds.3 mph69%30.73 "Hg9 mi
1:00 AM-18 °FClear.5 mph69%30.74 "Hg9 mi
12:00 AM-18 °FPassing clouds.7 mph69%30.75 "Hg9 mi
11:00 PM
Jan 31
-17 °FClear.5 mph69%30.75 "Hg9 mi
10:00 PM-17 °FClear.7 mph69%30.74 "Hg9 mi
9:00 PM-15 °FClear.5 mph69%30.74 "Hg9 mi
8:00 PM-15 °FClear.5 mph69%30.74 "Hg9 mi
7:00 PM-13 °FClear.2 mph63%30.73 "Hg9 mi
6:00 PM-13 °FClear.5 mph63%30.73 "Hg9 mi
5:00 PM-13 °FSunny.7 mph63%30.72 "Hg9 mi
4:00 PM-13 °FSunny.10 mph63%30.71 "Hg9 mi
3:00 PM-13 °FSunny.10 mph63%30.71 "Hg9 mi
2:00 PM-13 °FSunny.9 mph69%30.71 "Hg9 mi
1:00 PM-13 °FSunny.8 mph63%30.72 "Hg9 mi
12:00 PM-13 °FSunny.8 mph69%30.72 "Hg9 mi
11:00 AM-13 °FSunny.8 mph69%30.71 "Hg9 mi
Weather by CustomWeather, © 2014

See weather overviewHow to use our weather pages